Location: Beau Repaire
(50.6144°N, 4.0551°E)
Time: 08:24:34
(UTC+00:00)

Ariane Rocket - Pass Details

Date: 15 May 2026
Orbit: 755 x 763 km, 98.4° (Epoch: 6 June)

Event Time Altitude Azimuth Distance (km) Brightness Sun altitude
Exits shadow 20:59:02 16° 155° (SSE) 1,934 4.5 -11.9°
Maximum altitude 21:03:10 75° 72° (ENE) 792 3.0 -12.3°
Drops below altitude 10° 21:08:15 10° 348° (NNW) 2,309 6.6 -12.8°
Sets 21:10:34 0° 347° (NNW) 3,241 7.6 -13.0°
